| time (UTC) | temp C | wind direction | speed KPH | gust KPH | rain 1hr cm | rain 24hr cm | rain mn cm | humidity % | barometer mb |
| 20260902191218 | 24 | 136 | 0.0 | 0.0 | 0.00 | 0.00 | 0.00 | 18 | 1024.5 |
| 20260902190712 | 23 | 134 | 0.0 | 0.0 | 0.00 | 0.00 | 0.00 | 21 | 1024.5 |
| 20260902190208 | 23 | 332 | 0.0 | 0.0 | 0.00 | 0.00 | 0.00 | 18 | 1024.5 |
| 20260902185700 | 23 | 220 | 0.0 | 0.0 | 0.00 | 0.00 | 0.00 | 20 | 1024.5 |
| 20260902185155 | 23 | 265 | 0.0 | 0.0 | 0.00 | 0.00 | 0.00 | 20 | 1024.8 |
| 20260902184651 | 23 | 274 | 0.0 | 0.0 | 0.00 | 0.00 | 0.00 | 22 | 1024.5 |
| 20260902184143 | 23 | 191 | 0.0 | 1.6 | 0.00 | 0.00 | 0.00 | 22 | 1024.5 |
| 20260902183638 | 23 | 281 | 0.0 | 1.6 | 0.00 | 0.00 | 0.00 | 20 | 1024.1 |
| 20260902183133 | 23 | 220 | 0.0 | 0.0 | 0.00 | 0.00 | 0.00 | 22 | 1024.5 |
| 20260902182626 | 24 | 49 | 0.0 | 0.0 | 0.00 | 0.00 | 0.00 | 22 | 1024.5 |
| 20260902182120 | 24 | 194 | 0.0 | 1.6 | 0.00 | 0.00 | 0.00 | 22 | 1024.8 |
| 20260902181615 | 24 | 234 | 0.0 | 1.6 | 0.00 | 0.00 | 0.00 | 22 | 1024.5 |
| 20260902181108 | 24 | 234 | 0.0 | 0.0 | 0.00 | 0.00 | 0.00 | 16 | 1024.5 |
| 20260902180603 | 24 | 205 | 0.0 | 0.0 | 0.00 | 0.00 | 0.00 | 15 | 1024.5 |
| 20260902180100 | 24 | 226 | 0.0 | 0.0 | 0.00 | 0.00 | 0.00 | 18 | 1024.1 |
| 20260902175552 | 24 | 179 | 0.0 | 0.0 | 0.00 | 0.00 | 0.00 | 15 | 1024.1 |
| 20260902175547 | 23 | 246 | 0.0 | 0.0 | 0.00 | 0.00 | 0.00 | 17 | 1024.5 |
| 20260902174540 | 23 | 181 | 0.0 | 0.0 | 0.00 | 0.00 | 0.00 | 18 | 1024.5 |
| 20260902174034 | 23 | 207 | 0.0 | 0.0 | 0.00 | 0.00 | 0.00 | 20 | 1024.1 |
| 20260902174025 | 23 | 205 | 0.0 | 0.0 | 0.00 | 0.00 | 0.00 | 14 | 1024.5 |
| 20260902173629 | 23 | 152 | 0.0 | 0.0 | 0.00 | 0.00 | 0.00 | 20 | 1024.1 |
| 20260902172515 | 22 | 169 | 0.0 | 0.0 | 0.00 | 0.00 | 0.00 | 16 | 1024.5 |
| 20260902172010 | 22 | 130 | 0.0 | 0.0 | 0.00 | 0.00 | 0.00 | 21 | 1024.1 |
| 20260902171505 | 21 | 225 | 0.0 | 0.0 | 0.00 | 0.00 | 0.00 | 22 | 1024.1 |
| 20260902170959 | 21 | 184 | 0.0 | 0.0 | 0.00 | 0.00 | 0.00 | 20 | 1024.5 |
| 20260902170453 | 21 | 113 | 0.0 | 0.0 | 0.00 | 0.00 | 0.00 | 20 | 1024.1 |
| 20260902165948 | 21 | 157 | 0.0 | 0.0 | 0.00 | 0.00 | 0.00 | 20 | 1024.1 |
| 20260902165443 | 21 | 114 | 0.0 | 0.0 | 0.00 | 0.00 | 0.00 | 21 | 1024.1 |
| 20260902165438 | 21 | 202 | 0.0 | 0.0 | 0.00 | 0.00 | 0.00 | 22 | 1024.1 |
| 20260902164431 | 21 | 138 | 0.0 | 0.0 | 0.00 | 0.00 | 0.00 | 21 | 1024.1 |
| 20260902164424 | 21 | 178 | 0.0 | 0.0 | 0.00 | 0.00 | 0.00 | 20 | 1024.1 |
| 20260902163418 | 20 | 149 | 0.0 | 0.0 | 0.00 | 0.00 | 0.00 | 19 | 1024.5 |
| 20260902162913 | 20 | 177 | 0.0 | 0.0 | 0.00 | 0.00 | 0.00 | 22 | 1024.1 |
| 20260902162407 | 20 | 181 | 0.0 | 0.0 | 0.00 | 0.00 | 0.00 | 20 | 1024.1 |
| 20260902161900 | 19 | 232 | 0.0 | 0.0 | 0.00 | 0.00 | 0.00 | 22 | 1024.5 |
| 20260902161357 | 19 | 195 | 0.0 | 0.0 | 0.00 | 0.00 | 0.00 | 21 | 1024.1 |
| 20260902161351 | 18 | 219 | 0.0 | 0.0 | 0.00 | 0.00 | 0.00 | 25 | 1024.5 |
| 20260902160343 | 18 | 218 | 0.0 | 0.0 | 0.00 | 0.00 | 0.00 | 27 | 1024.5 |
| 20260902155839 | 18 | 154 | 0.0 | 0.0 | 0.00 | 0.00 | 0.00 | 27 | 1024.1 |
| 20260902155332 | 18 | 109 | 0.0 | 0.0 | 0.00 | 0.00 | 0.00 | 27 | 1024.5 |
| 20260902154826 | 17 | 125 | 0.0 | 0.0 | 0.00 | 0.00 | 0.00 | 29 | 1024.5 |
| 20260902154321 | 17 | 223 | 0.0 | 0.0 | 0.00 | 0.00 | 0.00 | 32 | 1024.5 |
| 20260902154315 | 17 | 249 | 0.0 | 0.0 | 0.00 | 0.00 | 0.00 | 32 | 1024.5 |
| 20260902153309 | 17 | 200 | 0.0 | 0.0 | 0.00 | 0.00 | 0.00 | 31 | 1024.8 |
| 20260902152804 | 16 | 172 | 0.0 | 0.0 | 0.00 | 0.00 | 0.00 | 32 | 1024.5 |
| 20260902152258 | 16 | 165 | 0.0 | 0.0 | 0.00 | 0.00 | 0.00 | 33 | 1024.5 |
| 20260902151753 | 16 | 186 | 0.0 | 0.0 | 0.00 | 0.00 | 0.00 | 32 | 1024.5 |
| 20260902151747 | 16 | 193 | 0.0 | 0.0 | 0.00 | 0.00 | 0.00 | 32 | 1024.1 |
| 20260902150740 | 16 | 200 | 0.0 | 0.0 | 0.00 | 0.00 | 0.00 | 32 | 1024.5 |
| 20260902150233 | 16 | 231 | 0.0 | 0.0 | 0.00 | 0.00 | 0.00 | 32 | 1024.1 |
| 20260902145729 | 16 | 206 | 0.0 | 0.0 | 0.00 | 0.00 | 0.00 | 32 | 1024.1 |
| 20260902145222 | 16 | 131 | 0.0 | 0.0 | 0.00 | 0.00 | 0.00 | 33 | 1023.8 |
| 20260902144716 | 16 | 168 | 0.0 | 0.0 | 0.00 | 0.00 | 0.00 | 33 | 1023.8 |
| 20260902144212 | 16 | 201 | 0.0 | 0.0 | 0.00 | 0.00 | 0.00 | 34 | 1023.8 |
| 20260902143704 | 16 | 137 | 0.0 | 0.0 | 0.00 | 0.00 | 0.00 | 35 | 1023.5 |
| 20260902143158 | 16 | 173 | 0.0 | 0.0 | 0.00 | 0.00 | 0.00 | 35 | 1023.8 |
| 20260902142654 | 16 | 193 | 0.0 | 0.0 | 0.00 | 0.00 | 0.00 | 35 | 1023.8 |
| 20260902142147 | 16 | 211 | 0.0 | 0.0 | 0.00 | 0.00 | 0.00 | 35 | 1023.8 |
| 20260902141641 | 16 | 189 | 0.0 | 0.0 | 0.00 | 0.00 | 0.00 | 36 | 1024.1 |
| 20260902141137 | 16 | 182 | 0.0 | 0.0 | 0.00 | 0.00 | 0.00 | 36 | 1023.8 |
| 20260902140631 | 16 | 217 | 0.0 | 0.0 | 0.00 | 0.00 | 0.00 | 36 | 1023.8 |
| 20260902140625 | 16 | 196 | 0.0 | 0.0 | 0.00 | 0.00 | 0.00 | 36 | 1023.8 |
| 20260902135620 | 16 | 208 | 0.0 | 0.0 | 0.00 | 0.00 | 0.00 | 36 | 1023.5 |
| 20260902135112 | 16 | 202 | 0.0 | 0.0 | 0.00 | 0.00 | 0.00 | 36 | 1023.5 |
| 20260902135107 | 16 | 195 | 0.0 | 0.0 | 0.00 | 0.00 | 0.00 | 36 | 1023.5 |
| 20260902134102 | 16 | 211 | 0.0 | 0.0 | 0.00 | 0.00 | 0.00 | 36 | 1023.8 |
| 20260902133558 | 15 | 146 | 0.0 | 0.0 | 0.00 | 0.00 | 0.00 | 36 | 1023.5 |
| 20260902133553 | 15 | 220 | 0.0 | 0.0 | 0.00 | 0.00 | 0.00 | 36 | 1023.5 |
| 20260902133046 | 15 | 218 | 0.0 | 0.0 | 0.00 | 0.00 | 0.00 | 37 | 1023.5 |
| 20260902132038 | 15 | 193 | 0.0 | 0.0 | 0.00 | 0.00 | 0.00 | 38 | 1023.1 |
| 20260902131532 | 15 | 203 | 0.0 | 0.0 | 0.00 | 0.00 | 0.00 | 38 | 1023.1 |
| 20260902131027 | 15 | 203 | 0.0 | 0.0 | 0.00 | 0.00 | 0.00 | 37 | 1022.8 |
| 20260902130520 | 15 | 202 | 0.0 | 0.0 | 0.00 | 0.00 | 0.00 | 37 | 1023.1 |
| 20260902130016 | 15 | 133 | 0.0 | 0.0 | 0.00 | 0.00 | 0.00 | 38 | 1023.1 |
| 20260902130010 | 15 | 188 | 0.0 | 0.0 | 0.00 | 0.00 | 0.00 | 38 | 1022.8 |
| 20260902125003 | 15 | 228 | 0.0 | 0.0 | 0.00 | 0.00 | 0.00 | 38 | 1022.8 |
| 20260902124457 | 15 | 213 | 0.0 | 0.0 | 0.00 | 0.00 | 0.00 | 38 | 1022.8 |
| 20260902123952 | 15 | 213 | 0.0 | 0.0 | 0.00 | 0.00 | 0.00 | 38 | 1022.8 |
| 20260902123445 | 15 | 211 | 0.0 | 0.0 | 0.00 | 0.00 | 0.00 | 38 | 1022.8 |
| 20260902122939 | 15 | 203 | 0.0 | 0.0 | 0.00 | 0.00 | 0.00 | 38 | 1022.8 |
| 20260902122435 | 15 | 201 | 0.0 | 0.0 | 0.00 | 0.00 | 0.00 | 38 | 1023.1 |
| 20260902121928 | 15 | 190 | 0.0 | 0.0 | 0.00 | 0.00 | 0.00 | 38 | 1022.8 |
| 20260902121423 | 15 | 230 | 0.0 | 0.0 | 0.00 | 0.00 | 0.00 | 38 | 1023.1 |
| 20260902120917 | 15 | 187 | 0.0 | 0.0 | 0.00 | 0.00 | 0.00 | 38 | 1022.8 |
| 20260902120411 | 15 | 207 | 0.0 | 0.0 | 0.00 | 0.00 | 0.00 | 38 | 1023.1 |
| 20260902115905 | 15 | 207 | 0.0 | 0.0 | 0.00 | 0.00 | 0.00 | 38 | 1023.1 |
| 20260902115401 | 15 | 219 | 0.0 | 0.0 | 0.00 | 0.00 | 0.00 | 38 | 1022.8 |
| 20260902115354 | 16 | 219 | 0.0 | 0.0 | 0.00 | 0.00 | 0.00 | 37 | 1023.1 |
| 20260902114348 | 16 | 236 | 0.0 | 0.0 | 0.00 | 0.00 | 0.00 | 37 | 1023.1 |
| 20260902113843 | 16 | 218 | 0.0 | 0.0 | 0.00 | 0.00 | 0.00 | 37 | 1022.8 |
| 20260902113336 | 16 | 215 | 0.0 | 0.0 | 0.00 | 0.00 | 0.00 | 36 | 1023.1 |
| 20260902112830 | 16 | 177 | 0.0 | 0.0 | 0.00 | 0.00 | 0.00 | 35 | 1023.1 |
| 20260902112325 | 16 | 120 | 0.0 | 0.0 | 0.00 | 0.00 | 0.00 | 35 | 1023.5 |
| 20260902111818 | 16 | 198 | 0.0 | 0.0 | 0.00 | 0.00 | 0.00 | 34 | 1023.1 |
| 20260902111313 | 16 | 161 | 0.0 | 0.0 | 0.00 | 0.00 | 0.00 | 34 | 1023.5 |
| 20260902110808 | 16 | 220 | 0.0 | 0.0 | 0.00 | 0.00 | 0.00 | 35 | 1023.5 |
| 20260902110301 | 16 | 223 | 0.0 | 0.0 | 0.00 | 0.00 | 0.00 | 34 | 1023.5 |
| 20260902105755 | 16 | 196 | 0.0 | 0.0 | 0.00 | 0.00 | 0.00 | 34 | 1023.5 |
| 20260902105251 | 16 | 203 | 0.0 | 0.0 | 0.00 | 0.00 | 0.00 | 35 | 1023.8 |
| 20260902104745 | 16 | 213 | 0.0 | 0.0 | 0.00 | 0.00 | 0.00 | 36 | 1023.8 |
| 20260902104239 | 16 | 208 | 0.0 | 0.0 | 0.00 | 0.00 | 0.00 | 36 | 1023.8 |
| 20260902103733 | 16 | 208 | 0.0 | 0.0 | 0.00 | 0.00 | 0.00 | 35 | 1023.8 |
| 20260902103226 | 16 | 210 | 0.0 | 0.0 | 0.00 | 0.00 | 0.00 | 36 | 1023.5 |
| 20260902102721 | 16 | 244 | 0.0 | 0.0 | 0.00 | 0.00 | 0.00 | 36 | 1023.8 |
| 20260902102216 | 15 | 235 | 0.0 | 0.0 | 0.00 | 0.00 | 0.00 | 37 | 1023.8 |
| 20260902102209 | 15 | 252 | 0.0 | 0.0 | 0.00 | 0.00 | 0.00 | 37 | 1023.5 |
| 20260902101204 | 15 | 239 | 0.0 | 0.0 | 0.00 | 0.00 | 0.00 | 38 | 1023.8 |
| 20260902100658 | 15 | 218 | 0.0 | 0.0 | 0.00 | 0.00 | 0.00 | 39 | 1023.8 |
| 20260902100151 | 15 | 225 | 0.0 | 0.0 | 0.00 | 0.00 | 0.00 | 39 | 1023.8 |
| 20260902095645 | 15 | 231 | 0.0 | 0.0 | 0.00 | 0.00 | 0.00 | 39 | 1023.8 |
| 20260902095142 | 15 | 216 | 0.0 | 0.0 | 0.00 | 0.00 | 0.00 | 39 | 1023.8 |
| 20260902094634 | 15 | 218 | 0.0 | 0.0 | 0.00 | 0.00 | 0.00 | 39 | 1023.8 |
| 20260902094128 | 15 | 211 | 0.0 | 0.0 | 0.00 | 0.00 | 0.00 | 39 | 1023.8 |
| 20260902094119 | 16 | 242 | 0.0 | 0.0 | 0.00 | 0.00 | 0.00 | 39 | 1023.5 |
| 20260902093725 | 16 | 229 | 0.0 | 0.0 | 0.00 | 0.00 | 0.00 | 39 | 1023.5 |
| 20260902092611 | 16 | 258 | 0.0 | 0.0 | 0.00 | 0.00 | 0.00 | 39 | 1023.8 |
| 20260902092107 | 16 | 217 | 0.0 | 0.0 | 0.00 | 0.00 | 0.00 | 38 | 1023.8 |
| 20260902091600 | 16 | 233 | 0.0 | 0.0 | 0.00 | 0.00 | 0.00 | 37 | 1023.5 |
| 20260902091555 | 16 | 202 | 0.0 | 0.0 | 0.00 | 0.00 | 0.00 | 36 | 1023.5 |
| 20260902090550 | 16 | 202 | 0.0 | 0.0 | 0.00 | 0.00 | 0.00 | 36 | 1023.5 |
| 20260902090544 | 16 | 238 | 0.0 | 0.0 | 0.00 | 0.00 | 0.00 | 35 | 1023.5 |
| 20260902085536 | 16 | 218 | 0.0 | 0.0 | 0.00 | 0.00 | 0.00 | 36 | 1023.5 |
| 20260902085032 | 16 | 226 | 0.0 | 0.0 | 0.00 | 0.00 | 0.00 | 35 | 1023.5 |
| 20260902084525 | 16 | 231 | 0.0 | 0.0 | 0.00 | 0.00 | 0.00 | 35 | 1023.5 |
| 20260902084019 | 16 | 224 | 0.0 | 0.0 | 0.00 | 0.00 | 0.00 | 35 | 1023.5 |
| 20260902083514 | 16 | 234 | 0.0 | 0.0 | 0.00 | 0.00 | 0.00 | 35 | 1023.1 |
| 20260902083007 | 16 | 232 | 0.0 | 0.0 | 0.00 | 0.00 | 0.00 | 35 | 1023.5 |
| 20260902082501 | 16 | 233 | 0.0 | 0.0 | 0.00 | 0.00 | 0.00 | 35 | 1023.5 |
| 20260902081957 | 17 | 250 | 0.0 | 0.0 | 0.00 | 0.00 | 0.00 | 35 | 1023.5 |
| 20260902081450 | 17 | 234 | 0.0 | 0.0 | 0.00 | 0.00 | 0.00 | 34 | 1023.5 |
| 20260902080945 | 17 | 247 | 0.0 | 0.0 | 0.00 | 0.00 | 0.00 | 33 | 1023.5 |
| 20260902080440 | 17 | 206 | 0.0 | 0.0 | 0.00 | 0.00 | 0.00 | 33 | 1023.5 |
| 20260902075939 | 16 | 234 | 0.0 | 0.0 | 0.00 | 0.03 | 0.00 | 34 | 1023.1 |
| 20260902075433 | 16 | 222 | 0.0 | 0.0 | 0.00 | 0.03 | 0.00 | 33 | 1023.5 |
| 20260902075426 | 16 | 219 | 0.0 | 0.0 | 0.00 | 0.03 | 0.00 | 32 | 1023.5 |
| 20260902075028 | 16 | 233 | 0.0 | 0.0 | 0.00 | 0.03 | 0.00 | 33 | 1023.5 |
| 20260902073917 | 16 | 133 | 0.0 | 0.0 | 0.00 | 0.03 | 0.00 | 31 | 1023.5 |
| 20260902073412 | 16 | 338 | 0.0 | 0.0 | 0.00 | 0.03 | 0.00 | 31 | 1023.1 |
| 20260902072907 | 16 | 234 | 0.0 | 0.0 | 0.00 | 0.03 | 0.00 | 32 | 1023.1 |
| 20260902072902 | 16 | 250 | 0.0 | 0.0 | 0.00 | 0.03 | 0.00 | 32 | 1023.1 |
| 20260902071856 | 16 | 202 | 0.0 | 0.0 | 0.00 | 0.03 | 0.00 | 33 | 1023.5 |
| 20260902071351 | 16 | 203 | 0.0 | 0.0 | 0.00 | 0.03 | 0.00 | 33 | 1023.1 |
| 20260902070846 | 16 | 225 | 0.0 | 0.0 | 0.00 | 0.03 | 0.00 | 33 | 1023.1 |
| 20260902070342 | 16 | 218 | 0.0 | 0.0 | 0.00 | 0.03 | 0.00 | 33 | 1023.5 |
| 20260902070336 | 16 | 218 | 0.0 | 0.0 | 0.00 | 0.03 | 0.03 | 34 | 1023.1 |
| 20260902065329 | 16 | 230 | 0.0 | 0.0 | 0.00 | 0.03 | 0.03 | 34 | 1023.1 |
| 20260902064826 | 16 | 245 | 0.0 | 0.0 | 0.00 | 0.03 | 0.03 | 34 | 1023.5 |
| 20260902064319 | 16 | 195 | 0.0 | 0.0 | 0.00 | 0.03 | 0.03 | 33 | 1023.1 |
| 20260902063814 | 17 | 195 | 0.0 | 0.0 | 0.00 | 0.03 | 0.03 | 33 | 1023.5 |
| 20260902063309 | 17 | 196 | 0.0 | 0.0 | 0.00 | 0.03 | 0.03 | 33 | 1023.5 |
| 20260902062804 | 17 | 206 | 0.0 | 0.0 | 0.00 | 0.03 | 0.03 | 32 | 1023.1 |
| 20260902062259 | 17 | 226 | 0.0 | 0.0 | 0.00 | 0.03 | 0.03 | 32 | 1023.5 |
| 20260902061753 | 17 | 217 | 0.0 | 0.0 | 0.00 | 0.03 | 0.03 | 31 | 1023.5 |
| 20260902061249 | 17 | 251 | 0.0 | 0.0 | 0.00 | 0.03 | 0.03 | 31 | 1023.1 |
| 20260902061243 | 17 | 203 | 0.0 | 0.0 | 0.00 | 0.03 | 0.03 | 31 | 1023.1 |
| 20260902060238 | 17 | 207 | 0.0 | 0.0 | 0.00 | 0.03 | 0.03 | 31 | 1023.1 |
| 20260902055732 | 17 | 247 | 0.0 | 0.0 | 0.00 | 0.03 | 0.03 | 31 | 1023.5 |
| 20260902055227 | 17 | 274 | 0.0 | 0.0 | 0.00 | 0.03 | 0.03 | 31 | 1023.5 |
| 20260902055222 | 17 | 240 | 0.0 | 0.0 | 0.00 | 0.03 | 0.03 | 33 | 1023.5 |
| 20260902054216 | 17 | 218 | 0.0 | 0.0 | 0.00 | 0.03 | 0.03 | 32 | 1023.5 |
| 20260902053710 | 17 | 218 | 0.0 | 0.0 | 0.00 | 0.03 | 0.03 | 31 | 1023.5 |
| 20260902053205 | 17 | 238 | 0.0 | 0.0 | 0.00 | 0.03 | 0.03 | 31 | 1023.5 |
| 20260902052659 | 17 | 221 | 0.0 | 0.0 | 0.00 | 0.03 | 0.03 | 31 | 1023.5 |
| 20260902052155 | 17 | 210 | 0.0 | 0.0 | 0.00 | 0.03 | 0.03 | 31 | 1023.5 |
| 20260902051649 | 17 | 252 | 0.0 | 0.0 | 0.00 | 0.03 | 0.03 | 31 | 1023.5 |
| 20260902051143 | 17 | 227 | 0.0 | 0.0 | 0.00 | 0.03 | 0.03 | 31 | 1023.5 |
| 20260902050638 | 17 | 238 | 0.0 | 0.0 | 0.00 | 0.03 | 0.03 | 31 | 1023.8 |
| 20260902050633 | 17 | 219 | 0.0 | 0.0 | 0.00 | 0.03 | 0.03 | 30 | 1023.5 |
| 20260902045628 | 17 | 206 | 0.0 | 0.0 | 0.00 | 0.03 | 0.03 | 30 | 1023.8 |
| 20260902045122 | 17 | 217 | 0.0 | 0.0 | 0.00 | 0.03 | 0.03 | 30 | 1023.5 |
| 20260902044617 | 17 | 189 | 0.0 | 0.0 | 0.00 | 0.03 | 0.03 | 29 | 1023.8 |
| 20260902044112 | 17 | 217 | 0.0 | 0.0 | 0.00 | 0.03 | 0.03 | 29 | 1023.5 |
| 20260902043607 | 17 | 197 | 0.0 | 0.0 | 0.00 | 0.03 | 0.03 | 29 | 1023.5 |
| 20260902043101 | 17 | 201 | 0.0 | 0.0 | 0.00 | 0.03 | 0.03 | 28 | 1023.5 |
| 20260902042556 | 18 | 208 | 0.0 | 1.6 | 0.00 | 0.03 | 0.03 | 30 | 1023.5 |
| 20260902042052 | 18 | 281 | 0.0 | 1.6 | 0.00 | 0.03 | 0.03 | 30 | 1023.5 |
| 20260902042047 | 18 | 242 | 0.0 | 0.0 | 0.00 | 0.03 | 0.03 | 30 | 1023.5 |
| 20260902041040 | 18 | 252 | 0.0 | 0.0 | 0.00 | 0.03 | 0.03 | 30 | 1023.5 |
| 20260902040535 | 18 | 242 | 0.0 | 0.0 | 0.00 | 0.03 | 0.03 | 29 | 1023.5 |
| 20260902040528 | 19 | 249 | 0.0 | 0.0 | 0.00 | 0.03 | 0.03 | 30 | 1023.1 |
| 20260902040133 | 18 | 246 | 0.0 | 0.0 | 0.00 | 0.03 | 0.03 | 31 | 1023.5 |
| 20260902035021 | 19 | 184 | 0.0 | 0.0 | 0.00 | 0.03 | 0.03 | 29 | 1023.1 |
| 20260902035015 | 19 | 258 | 0.0 | 0.0 | 0.00 | 0.03 | 0.03 | 28 | 1023.1 |
| 20260902034011 | 19 | 188 | 0.0 | 0.0 | 0.00 | 0.03 | 0.03 | 28 | 1023.1 |
| 20260902034006 | 19 | 277 | 0.0 | 0.0 | 0.00 | 0.03 | 0.03 | 28 | 1023.1 |
| 20260902032959 | 19 | 277 | 0.0 | 0.0 | 0.00 | 0.03 | 0.03 | 27 | 1023.1 |
| 20260902032454 | 19 | 183 | 0.0 | 0.0 | 0.00 | 0.03 | 0.03 | 27 | 1022.8 |
| 20260902031948 | 19 | 240 | 0.0 | 0.0 | 0.00 | 0.03 | 0.03 | 27 | 1023.1 |
| 20260902031442 | 19 | 210 | 0.0 | 0.0 | 0.00 | 0.03 | 0.03 | 27 | 1022.4 |
| 20260902030937 | 19 | 95 | 0.0 | 1.6 | 0.00 | 0.03 | 0.03 | 27 | 1022.8 |
| 20260902030432 | 20 | 244 | 0.0 | 1.6 | 0.00 | 0.03 | 0.03 | 27 | 1022.4 |
| 20260902025926 | 20 | 223 | 0.0 | 0.0 | 0.00 | 0.03 | 0.03 | 27 | 1022.8 |
| 20260902025425 | 20 | 202 | 0.0 | 0.0 | 0.00 | 0.03 | 0.03 | 27 | 1022.4 |
| 20260902025421 | 20 | 237 | 0.0 | 0.0 | 0.00 | 0.03 | 0.03 | 27 | 1022.4 |
| 20260902024410 | 20 | 203 | 0.0 | 0.0 | 0.00 | 0.03 | 0.03 | 27 | 1022.4 |
| 20260902023905 | 20 | 232 | 0.0 | 0.0 | 0.00 | 0.03 | 0.03 | 26 | 1022.4 |
| 20260902023400 | 20 | 267 | 0.0 | 0.0 | 0.00 | 0.03 | 0.03 | 25 | 1022.1 |
| 20260902022854 | 20 | 248 | 0.0 | 0.0 | 0.00 | 0.03 | 0.03 | 25 | 1022.1 |
| 20260902022349 | 20 | 279 | 0.0 | 0.0 | 0.00 | 0.03 | 0.03 | 25 | 1022.4 |
| 20260902021844 | 20 | 258 | 0.0 | 0.0 | 0.00 | 0.03 | 0.03 | 24 | 1022.4 |
| 20260902021338 | 20 | 227 | 0.0 | 0.0 | 0.00 | 0.03 | 0.03 | 24 | 1022.1 |
| 20260902021329 | 21 | 298 | 0.0 | 3.2 | 0.00 | 0.03 | 0.03 | 23 | 1022.1 |
| 20260902020933 | 20 | 300 | 0.0 | 0.0 | 0.00 | 0.03 | 0.03 | 23 | 1022.1 |
| 20260902015823 | 21 | 307 | 1.6 | 3.2 | 0.00 | 0.03 | 0.03 | 22 | 1022.1 |
| 20260902015318 | 21 | 249 | 0.0 | 0.0 | 0.00 | 0.03 | 0.03 | 23 | 1022.1 |
| 20260902014812 | 21 | 207 | 0.0 | 0.0 | 0.00 | 0.03 | 0.03 | 21 | 1022.1 |
| 20260902014307 | 21 | 225 | 0.0 | 1.6 | 0.00 | 0.03 | 0.03 | 21 | 1021.8 |
| 20260902013802 | 21 | 186 | 0.0 | 1.6 | 0.00 | 0.03 | 0.03 | 21 | 1021.8 |
| 20260902013257 | 21 | 202 | 0.0 | 1.6 | 0.00 | 0.03 | 0.03 | 20 | 1022.1 |
| 20260902012247 | 21 | 307 | 0.0 | 4.8 | 0.00 | 0.03 | 0.03 | 21 | 1022.1 |
| 20260902012242 | 21 | 251 | 0.0 | 0.0 | 0.00 | 0.03 | 0.03 | 20 | 1021.8 |
| 20260902011236 | 22 | 114 | 0.0 | 1.6 | 0.00 | 0.03 | 0.03 | 20 | 1022.1 |
| 20260902010730 | 22 | 49 | 0.0 | 3.2 | 0.00 | 0.03 | 0.03 | 20 | 1021.8 |
| 20260902010225 | 22 | 288 | 0.0 | 4.8 | 0.00 | 0.03 | 0.03 | 19 | 1021.8 |
| 20260902005719 | 22 | 303 | 0.0 | 4.8 | 0.00 | 0.03 | 0.03 | 18 | 1021.8 |
| 20260902005214 | 22 | 230 | 0.0 | 1.6 | 0.00 | 0.03 | 0.03 | 18 | 1021.8 |
| 20260902004709 | 22 | 339 | 0.0 | 1.6 | 0.00 | 0.03 | 0.03 | 18 | 1021.8 |
| 20260902004204 | 22 | 285 | 0.0 | 3.2 | 0.00 | 0.03 | 0.03 | 18 | 1021.8 |
| 20260902003700 | 22 | 306 | 0.0 | 3.2 | 0.00 | 0.03 | 0.03 | 18 | 1021.8 |
| 20260902003655 | 22 | 228 | 0.0 | 3.2 | 0.00 | 0.03 | 0.03 | 18 | 1021.4 |
| 20260902002648 | 22 | 101 | 0.0 | 6.4 | 0.00 | 0.03 | 0.03 | 18 | 1021.8 |
| 20260902002143 | 22 | 237 | 0.0 | 6.4 | 0.00 | 0.03 | 0.03 | 18 | 1021.8 |
| 20260902001637 | 22 | 265 | 0.0 | 1.6 | 0.00 | 0.03 | 0.03 | 18 | 1021.8 |
| 20260902001132 | 23 | 241 | 0.0 | 4.8 | 0.00 | 0.03 | 0.03 | 18 | 1021.4 |
| 20260902000627 | 23 | 300 | 0.0 | 4.8 | 0.00 | 0.03 | 0.03 | 18 | 1021.4 |
| 20260902000121 | 23 | 215 | 0.0 | 6.4 | 0.00 | 0.03 | 0.03 | 18 | 1021.4 |
| 20260901235616 | 23 | 319 | 0.0 | 6.4 | 0.00 | 0.03 | 0.03 | 14 | 1021.4 |
| 20260901235610 | 23 | 200 | 0.0 | 4.8 | 0.00 | 0.03 | 0.03 | 14 | 1021.4 |
| 20260901234604 | 23 | 58 | 0.0 | 4.8 | 0.00 | 0.03 | 0.03 | 13 | 1021.4 |
| 20260901234059 | 23 | 183 | 0.0 | 1.6 | 0.00 | 0.03 | 0.03 | 13 | 1021.4 |
| 20260901233554 | 23 | 199 | 0.0 | 1.6 | 0.00 | 0.03 | 0.03 | 12 | 1021.4 |
| 20260901233049 | 23 | 278 | 0.0 | 4.8 | 0.00 | 0.03 | 0.03 | 12 | 1021.4 |
| 20260901232544 | 24 | 314 | 0.0 | 4.8 | 0.00 | 0.03 | 0.03 | 14 | 1021.4 |
| 20260901232038 | 24 | 304 | 0.0 | 3.2 | 0.00 | 0.03 | 0.03 | 13 | 1021.8 |
| 20260901232033 | 24 | 196 | 0.0 | 3.2 | 0.00 | 0.03 | 0.03 | 12 | 1021.4 |
| 20260901231029 | 25 | 273 | 0.0 | 4.8 | 0.00 | 0.03 | 0.03 | 12 | 1021.4 |
| 20260901231024 | 25 | 197 | 0.0 | 4.8 | 0.00 | 0.03 | 0.03 | 11 | 1021.8 |
| 20260901230018 | 25 | 217 | 0.0 | 4.8 | 0.00 | 0.03 | 0.03 | 11 | 1021.8 |
| 20260901225512 | 25 | 214 | 0.0 | 1.6 | 0.00 | 0.03 | 0.03 | 10 | 1021.8 |
| 20260901225507 | 26 | 244 | 0.0 | 1.6 | 0.00 | 0.03 | 0.03 | 10 | 1021.4 |
| 20260901224502 | 26 | 162 | 0.0 | 3.2 | 0.00 | 0.03 | 0.03 | 10 | 1021.4 |
| 20260901223956 | 26 | 271 | 0.0 | 4.8 | 0.00 | 0.03 | 0.03 | 11 | 1021.4 |
| 20260901223451 | 26 | 288 | 0.0 | 4.8 | 0.00 | 0.03 | 0.03 | 11 | 1021.4 |
| 20260901222945 | 26 | 250 | 0.0 | 3.2 | 0.00 | 0.03 | 0.03 | 11 | 1021.8 |
| 20260901222442 | 26 | 0 | 0.0 | 3.2 | 0.00 | 0.03 | 0.03 | 10 | 1021.8 |
| 20260901222436 | 26 | 336 | 0.0 | 0.0 | 0.00 | 0.03 | 0.03 | 10 | 1021.8 |
| 20260901221431 | 26 | 144 | 0.0 | 1.6 | 0.00 | 0.03 | 0.03 | 10 | 1021.8 |
| 20260901221426 | 26 | 242 | 0.0 | 1.6 | 0.00 | 0.03 | 0.03 | 10 | 1021.8 |
| 20260901220421 | 26 | 204 | 0.0 | 0.0 | 0.00 | 0.03 | 0.03 | 10 | 1021.8 |
| 20260901220415 | 26 | 220 | 0.0 | 0.0 | 0.00 | 0.03 | 0.03 | 10 | 1022.1 |
| 20260901215408 | 26 | 270 | 0.0 | 0.0 | 0.00 | 0.03 | 0.03 | 10 | 1021.8 |
| 20260901214904 | 27 | 281 | 0.0 | 0.0 | 0.00 | 0.03 | 0.03 | 10 | 1021.8 |
| 20260901214854 | 27 | 206 | 0.0 | 1.6 | 0.00 | 0.03 | 0.03 | 10 | 1022.1 |
| 20260901214459 | 26 | 194 | 0.0 | 1.6 | 0.00 | 0.03 | 0.03 | 10 | 1022.1 |
| 20260901213348 | 27 | 246 | 0.0 | 9.7 | 0.00 | 0.03 | 0.03 | 10 | 1022.1 |
| 20260901212842 | 27 | 250 | 0.0 | 9.7 | 0.00 | 0.03 | 0.03 | 10 | 1022.1 |
| 20260901212337 | 26 | 225 | 0.0 | 0.0 | 0.00 | 0.03 | 0.03 | 12 | 1022.1 |
| 20260901211832 | 26 | 266 | 0.0 | 0.0 | 0.00 | 0.03 | 0.03 | 10 | 1022.1 |
| 20260901211326 | 26 | 189 | 0.0 | 0.0 | 0.00 | 0.03 | 0.03 | 10 | 1022.1 |
| 20260901210820 | 25 | 215 | 0.0 | 0.0 | 0.00 | 0.03 | 0.03 | 10 | 1022.1 |
| 20260901210316 | 25 | 249 | 0.0 | 0.0 | 0.00 | 0.03 | 0.03 | 10 | 1022.1 |
| 20260901205810 | 25 | 298 | 0.0 | 0.0 | 0.00 | 0.03 | 0.03 | 10 | 1022.1 |
| 20260901205306 | 24 | 175 | 0.0 | 0.0 | 0.00 | 0.03 | 0.03 | 10 | 1021.8 |
| 20260901205300 | 24 | 233 | 0.0 | 0.0 | 0.00 | 0.03 | 0.03 | 10 | 1021.8 |
| 20260901204253 | 24 | 233 | 0.0 | 0.0 | 0.00 | 0.03 | 0.03 | 10 | 1022.4 |
| 20260901203749 | 24 | 181 | 0.0 | 0.0 | 0.00 | 0.03 | 0.03 | 11 | 1022.4 |
| 20260901203743 | 24 | 202 | 0.0 | 0.0 | 0.00 | 0.03 | 0.03 | 10 | 1022.4 |
| 20260901202739 | 24 | 185 | 0.0 | 0.0 | 0.00 | 0.03 | 0.03 | 11 | 1022.1 |
| 20260901202235 | 24 | 199 | 0.0 | 1.6 | 0.00 | 0.03 | 0.03 | 11 | 1022.4 |
| 20260901202230 | 25 | 202 | 0.0 | 1.6 | 0.00 | 0.03 | 0.03 | 12 | 1022.8 |
| 20260901201222 | 25 | 210 | 0.0 | 0.0 | 0.00 | 0.03 | 0.03 | 11 | 1022.4 |
| 20260901200719 | 25 | 219 | 0.0 | 1.6 | 0.00 | 0.03 | 0.03 | 11 | 1022.8 |
| 20260901200214 | 25 | 262 | 0.0 | 0.0 | 0.00 | 0.03 | 0.03 | 10 | 1022.4 |
| 20260901200209 | 25 | 219 | 0.0 | 1.6 | 0.00 | 0.03 | 0.03 | 11 | 1022.8 |
| 20260901195201 | 25 | 178 | 0.0 | 1.6 | 0.00 | 0.03 | 0.03 | 12 | 1022.8 |
| 20260901194658 | 25 | 29 | 0.0 | 0.0 | 0.00 | 0.03 | 0.03 | 10 | 1022.8 |
| 20260901194151 | 25 | 211 | 0.0 | 0.0 | 0.00 | 0.03 | 0.03 | 14 | 1022.4 |
| 20260901193646 | 25 | 231 | 0.0 | 0.0 | 0.00 | 0.03 | 0.03 | 11 | 1022.8 |
| 20260901193140 | 25 | 219 | 0.0 | 0.0 | 0.00 | 0.03 | 0.03 | 11 | 1022.8 |
| 20260901192636 | 25 | 221 | 0.0 | 0.0 | 0.00 | 0.03 | 0.03 | 12 | 1022.8 |